[[{"header":{"parameterUnit":"m.s-1","parameterCategory":1,"la1":30.2991,"la2":30.254,"lo1":-89.0895,"lo2":-89.0444,"dy":0.0017,"dx":0.0017,"nx":28,"ny":28,"refTime":"2026-02-05T09:00:00:Z","depth":0,"parameterNumber":2,"parameterNumberName":"U-component_of_WINDS"},"data":[0,0,0,0,0,0,0,0,0,0,0,0,0,0,0,0,0,0,0,0,0,0,0,0,0,0,0,0,0,0,0,0,0,0,0,0,0,0,0,0,0,0,0,0,0,0,0,0,0,0,0,0,0,0,0,0,0,0,3.2858,3.2858,0,3.2892,3.2892,3.2892,3.2871,3.287,3.2869,3.2868,3.2902,3.2904,3.2906,0,0,0,0,0,0,0,0,0,0,0,0,0,3.2775,3.2777,3.2857,3.2858,3.2858,3.2892,3.2892,3.2892,3.2871,3.287,3.2868,3.2867,3.2901,3.2904,3.2906,0,0,0,0,0,0,0,0,0,0,0,0,0,3.281,3.2777,3.2857,3.2852,3.2851,3.2891,3.2892,3.2893,3.2871,3.287,3.2868,3.2867,3.2901,3.2903,3.2906,3.2954,0,0,3.2915,3.2916,0,0,0,0,0,0,0,0,3.2808,3.2813,3.2852,3.2852,3.2852,3.2875,3.2876,3.2913,3.2872,3.2864,3.2868,3.2866,3.2894,3.2898,3.2907,3.2955,3.2957,3.2915,3.2917,3.2918,3.2919,0,0,0,0,0,0,0,3.2806,3.2812,3.2871,3.2853,3.2853,3.2848,3.2851,3.2883,3.2887,3.2864,3.2863,3.2867,3.2894,3.2905,3.2908,3.2957,3.2915,3.2917,3.2919,3.292,3.3049,3.305,0,0,0,0,0,0,3.2804,3.281,3.287,3.2872,3.2826,3.2851,3.2854,3.2869,3.2887,3.2888,3.2868,3.2866,3.2901,3.2905,3.2909,3.2967,3.2918,3.292,3.2922,3.3047,3.3049,3.3051,0,0,0,0,0,0,3.2802,3.2809,3.2868,3.2841,3.2848,3.2854,3.2871,3.2871,3.2881,3.289,3.2891,3.2878,3.29,3.2905,3.2943,3.2968,3.2922,3.2924,3.3045,3.3048,3.305,3.3083,0,0,0,0,0,0,3.28,3.2809,3.2826,3.2841,3.2849,3.2902,3.2872,3.2873,3.2886,3.2884,3.2899,3.29,3.2899,3.2939,3.2946,3.2971,3.2926,3.3043,3.3046,3.3049,3.308,3.3087,3.3092,0,0,0,0,0,3.2797,3.2834,3.2827,3.2835,3.2871,3.2903,3.2908,3.2905,3.2888,3.2907,3.2912,3.29,3.2965,3.2943,3.2951,3.2977,3.3041,3.3045,3.3049,3.3077,3.3085,3.3092,0,0,0,0,0,0,3.2821,3.2835,3.2829,3.2871,3.2886,3.29,3.2922,3.2914,3.2934,3.293,3.2927,3.293,3.2971,3.2978,3.2954,3.3025,3.3,3.3006,3.3019,3.3027,3.3033,3.3031,3.2929,0,0,0,0,0,3.2831,3.2856,3.2867,3.2904,3.2912,3.2916,3.293,3.2927,3.2942,3.2948,3.2957,3.2972,3.2996,3.3012,3.3034,3.3081,3.3085,3.3103,3.3109,3.3115,3.3119,3.3147,3.3156,3.3064,3.3064,3.3064,0,0,3.2852,3.2863,3.2879,3.2909,3.292,3.2947,3.2921,3.2949,3.2969,3.2952,3.2989,3.2997,3.3014,3.3057,3.3077,3.3064,3.3146,3.312,3.3124,3.3126,3.3152,3.3161,3.3168,3.3066,3.3066,3.3066,0,0,3.2905,3.2915,3.2948,3.296,3.2978,3.2981,3.2989,3.3005,3.3009,3.3046,3.3035,3.3059,3.31,3.3113,3.3125,3.3186,3.3176,3.3194,3.3226,3.3253,3.326,3.3267,3.329,3.3298,3.3199,3.3199,3.3199,0,3.2929,3.2967,3.2965,3.2995,3.3009,3.2997,3.3031,3.3043,3.3067,3.3078,3.3064,3.3117,3.3127,3.3174,3.319,3.32,3.321,3.3191,3.3259,3.3266,3.3272,3.3294,3.3302,3.3201,3.32,3.32,3.32,0,3.2997,3.3024,3.3049,3.3074,3.3091,3.3122,3.3126,3.3143,3.314,3.3145,3.3184,3.3197,3.3223,3.3234,3.323,3.3282,3.3274,3.326,3.3234,3.3283,3.3303,3.3312,3.3204,3.3203,3.3202,3.3202,0,0,3.3063,3.3089,3.3098,3.311,3.3131,3.3152,3.3184,3.321,3.3226,3.3244,3.3272,3.3308,3.3296,3.331,3.3308,3.3332,3.3381,3.3315,3.3315,3.3328,3.3441,3.3452,3.3461,3.3375,3.3377,3.3378,3.344,0,3.3118,3.3173,3.3174,3.3226,3.3252,3.3242,3.327,3.3286,3.3292,3.3316,3.3323,3.3349,3.3331,3.334,3.3363,3.337,3.3404,3.3366,3.3401,3.3403,3.3398,3.3472,3.3483,3.354,3.3448,3.3449,3.345,0,3.3188,3.321,3.3264,3.3284,3.3295,3.332,3.3345,3.3368,3.3387,3.339,3.3407,3.3402,3.3436,3.341,3.3458,3.3432,3.3447,3.3453,3.3455,3.3458,3.3429,3.3478,3.3559,3.3568,3.3463,3.3462,3.3461,0,3.3232,3.3275,3.3314,3.3325,3.3348,3.3366,3.3377,3.3394,3.3411,3.3433,3.3444,3.347,3.3484,3.3504,3.3507,3.3488,3.3556,3.353,3.356,3.356,3.3574,3.3573,3.3659,3.3583,3.3583,3.3583,3.3583,0,3.3293,3.3327,3.3335,3.3359,3.3398,3.3398,3.3437,3.3446,3.3462,3.3488,3.3481,3.3506,3.3508,3.3534,3.3537,3.3577,3.3583,3.3587,3.3587,3.3588,3.3587,3.3597,3.3594,3.3585,3.3585,3.3584,3.3584,0,3.3349,3.3355,3.3397,3.3416,3.3422,3.345,3.3466,3.349,3.3496,3.353,3.3538,3.3548,3.3579,3.3584,3.3619,3.3621,3.3669,3.3665,3.3663,3.3663,3.3693,3.3691,3.3789,3.3802,3.3717,3.3718,3.3718,0,3.3387,3.3414,3.3436,3.3454,3.3466,3.3493,3.3511,3.3513,3.3532,3.3557,3.3578,3.3608,3.3632,3.3682,3.3693,3.3721,3.3717,3.375,3.3721,3.3722,3.3719,3.3718,3.3721,3.3755,3.3756,3.3757,3.3758,0,3.3456,3.3458,3.3483,3.3511,3.3532,3.3554,3.3574,3.3589,3.3594,3.3616,3.3648,3.3667,3.3704,3.3735,3.3763,3.3774,3.3768,3.3767,3.3776,3.3776,3.3775,3.3777,3.3679,3.3764,3.3764,3.3763,3.3763,3.3763,3.3504,3.3528,3.3549,3.3578,3.3594,3.3614,3.3638,3.3648,3.3675,3.3706,3.3706,3.3741,3.3762,3.3799,3.3813,3.3841,3.383,3.3843,3.3846,3.3849,3.3852,3.377,3.3846,3.3846,3.3845,3.3845,3.3845,0,3.3573,3.3587,3.3614,3.3643,3.3667,3.3659,3.3682,3.3703,3.3734,3.3754,3.3778,3.3816,3.3846,3.386,3.3891,3.3911,3.3908,3.3918,3.3917,3.392,3.3859,3.3849,3.392,3.392,3.392,3.392,3.392,3.392,3.3612,3.3652,3.3658,3.3707,3.372,3.3755,3.3769,3.3788,3.3804,3.3847,3.3872,3.3882,3.39,3.3932,3.396,3.3963,3.3975,3.3987,3.3989,3.3932,3.3924,3.3917,3.3908,3.3989,3.3989,3.4047,3.4048,3.4048]},{"header":{"parameterUnit":"m.s-1","parameterCategory":1,"la1":30.2991,"la2":30.254,"lo1":-89.0895,"lo2":-89.0444,"dy":0.0017,"dx":0.0017,"nx":28,"ny":28,"refTime":"2026-02-05T09:00:00:Z","depth":0,"parameterNumber":3,"parameterNumberName":"V-component_of_WINDS"},"data":[0,0,0,0,0,0,0,0,0,0,0,0,0,0,0,0,0,0,0,0,0,0,0,0,0,0,0,0,0,0,0,0,0,0,0,0,0,0,0,0,0,0,0,0,0,0,0,0,0,0,0,0,0,0,0,0,0,0,-6.3731,-6.3732,0,-6.3854,-6.3855,-6.3857,-6.3862,-6.386,-6.3859,-6.3857,-6.3978,-6.3982,-6.3987,0,0,0,0,0,0,0,0,0,0,0,0,0,-6.3496,-6.35,-6.373,-6.3732,-6.3734,-6.3854,-6.3856,-6.3857,-6.3862,-6.386,-6.3858,-6.3857,-6.3976,-6.3982,-6.3987,0,0,0,0,0,0,0,0,0,0,0,0,0,-6.3606,-6.3501,-6.373,-6.3751,-6.3754,-6.3854,-6.3856,-6.3858,-6.3862,-6.386,-6.3858,-6.3856,-6.3975,-6.3981,-6.3988,-6.4074,0,0,-6.4009,-6.4012,0,0,0,0,0,0,0,0,-6.36,-6.3615,-6.3746,-6.3749,-6.3753,-6.384,-6.3817,-6.393,-6.3863,-6.3821,-6.3857,-6.3855,-6.3933,-6.3944,-6.3971,-6.408,-6.4085,-6.401,-6.4014,-6.4017,-6.4019,0,0,0,0,0,0,0,-6.3592,-6.3609,-6.3779,-6.3748,-6.3752,-6.3752,-6.3766,-6.3838,-6.3888,-6.3824,-6.3825,-6.384,-6.3935,-6.3965,-6.3974,-6.4087,-6.4009,-6.4015,-6.402,-6.4022,-6.4275,-6.4278,0,0,0,0,0,0,-6.3581,-6.3603,-6.3775,-6.3783,-6.367,-6.3759,-6.3773,-6.3814,-6.3887,-6.3896,-6.3842,-6.384,-6.3954,-6.3966,-6.3978,-6.4086,-6.4017,-6.4023,-6.4027,-6.4273,-6.4276,-6.4279,0,0,0,0,0,0,-6.3576,-6.3596,-6.377,-6.3693,-6.3715,-6.3765,-6.3811,-6.3818,-6.3848,-6.39,-6.3908,-6.3863,-6.3953,-6.3969,-6.4051,-6.409,-6.4026,-6.4032,-6.427,-6.4274,-6.4277,-6.4301,0,0,0,0,0,0,-6.3569,-6.3595,-6.3628,-6.3694,-6.372,-6.3842,-6.3813,-6.3822,-6.386,-6.3859,-6.3923,-6.3931,-6.3952,-6.4041,-6.4058,-6.4099,-6.4038,-6.4266,-6.4271,-6.4276,-6.4297,-6.4305,-6.4313,0,0,0,0,0,-6.3561,-6.3628,-6.363,-6.3651,-6.3763,-6.3844,-6.3859,-6.3884,-6.3863,-6.3898,-6.3932,-6.3929,-6.4084,-6.405,-6.4069,-6.4112,-6.4264,-6.427,-6.4276,-6.4294,-6.4304,-6.4312,0,0,0,0,0,0,-6.3562,-6.3637,-6.364,-6.373,-6.3782,-6.3845,-6.3889,-6.3893,-6.3949,-6.3945,-6.3972,-6.3986,-6.4069,-6.4098,-6.4059,-6.4201,-6.4171,-6.4181,-6.4178,-6.4188,-6.4196,-6.4187,-6.4043,0,0,0,0,0,-6.3574,-6.3635,-6.3696,-6.377,-6.3796,-6.3838,-6.3874,-6.389,-6.3943,-6.3964,-6.4004,-6.4054,-6.4114,-6.4153,-6.4211,-6.4302,-6.4316,-6.4341,-6.4349,-6.4355,-6.4363,-6.4416,-6.4428,-6.4298,-6.4298,-6.4298,0,0,-6.3597,-6.3645,-6.3682,-6.3772,-6.3813,-6.3876,-6.3856,-6.3922,-6.3969,-6.3973,-6.4055,-6.4086,-6.4144,-6.4232,-6.4273,-6.4259,-6.4403,-6.4362,-6.4367,-6.4372,-6.4423,-6.4435,-6.4446,-6.4302,-6.4301,-6.4301,0,0,-6.3671,-6.3714,-6.3782,-6.3825,-6.3889,-6.3917,-6.3933,-6.3998,-6.402,-6.4103,-6.4108,-6.4163,-6.4266,-6.4308,-6.4342,-6.4437,-6.4437,-6.4455,-6.4495,-6.4546,-6.4557,-6.4566,-6.4601,-6.4613,-6.4463,-6.4463,-6.4463,0,-6.3691,-6.3787,-6.3815,-6.3883,-6.3923,-6.3934,-6.4003,-6.4042,-6.4121,-6.4148,-6.4133,-6.4264,-6.4303,-6.4403,-6.4427,-6.4454,-6.4474,-6.4448,-6.4553,-6.4563,-6.4572,-6.4606,-6.4619,-6.4465,-6.4465,-6.4465,-6.4465,0,-6.381,-6.3876,-6.3923,-6.4003,-6.4048,-6.4116,-6.4154,-6.4197,-6.4209,-6.4239,-6.4324,-6.4373,-6.4442,-6.4467,-6.4477,-6.4568,-6.4558,-6.4548,-6.4519,-6.4586,-6.4618,-6.4631,-6.4468,-6.4467,-6.4467,-6.4466,0,0,-6.3886,-6.3984,-6.4001,-6.4038,-6.4112,-6.4163,-6.4232,-6.4303,-6.4339,-6.4394,-6.4452,-6.4541,-6.4533,-6.4573,-6.4589,-6.4633,-6.4708,-6.4618,-6.4619,-6.4634,-6.4813,-6.4821,-6.4836,-6.4709,-6.4712,-6.4714,-6.4809,0,-6.397,-6.4095,-6.4124,-6.4231,-6.4294,-6.4306,-6.4366,-6.4417,-6.4448,-6.4505,-6.4537,-6.4601,-6.4584,-6.4609,-6.4654,-6.4689,-6.4744,-6.4683,-6.4764,-6.4766,-6.4749,-6.4853,-6.4861,-6.4948,-6.4822,-6.4824,-6.4825,0,-6.4083,-6.4144,-6.4258,-6.4327,-6.4354,-6.4408,-6.4477,-6.4531,-6.459,-6.4609,-6.4656,-6.4668,-6.474,-6.4709,-6.4809,-6.4766,-6.4801,-6.4824,-6.4828,-6.4836,-6.48,-6.4865,-6.4976,-6.499,-6.4845,-6.4844,-6.4842,0,-6.4129,-6.424,-6.4324,-6.4355,-6.4436,-6.4474,-6.451,-6.4567,-6.4608,-6.4668,-6.4696,-6.4762,-6.4798,-6.4849,-6.4879,-6.4853,-6.4978,-6.4948,-6.4995,-6.4995,-6.5021,-6.5019,-6.514,-6.5042,-6.5042,-6.5042,-6.5042,0,-6.422,-6.4289,-6.4346,-6.4397,-6.4476,-6.4509,-6.4586,-6.4621,-6.4673,-6.4731,-6.4744,-6.4798,-6.4835,-6.4894,-6.4918,-6.4998,-6.5014,-6.5031,-6.5037,-6.5031,-6.5029,-6.5054,-6.5048,-6.5045,-6.5045,-6.5044,-6.5043,0,-6.4284,-6.4325,-6.4417,-6.4488,-6.4508,-6.4563,-6.4623,-6.4674,-6.4706,-6.4779,-6.4798,-6.4848,-6.4919,-6.4955,-6.5041,-6.5057,-6.5149,-6.515,-6.513,-6.5132,-6.5178,-6.5174,-6.5321,-6.5342,-6.5229,-6.523,-6.5231,0,-6.4339,-6.4394,-6.4472,-6.4514,-6.4551,-6.4616,-6.4661,-6.4696,-6.4741,-6.4814,-6.4856,-6.4928,-6.4987,-6.51,-6.5143,-6.521,-6.5213,-6.526,-6.5223,-6.5216,-6.5216,-6.5212,-6.5219,-6.5267,-6.5268,-6.5269,-6.5269,0,-6.4433,-6.4452,-6.4516,-6.4588,-6.4641,-6.4699,-6.4755,-6.4788,-6.4832,-6.4882,-6.4956,-6.5003,-6.5094,-6.5166,-6.5237,-6.5272,-6.5279,-6.5281,-6.5296,-6.529,-6.5277,-6.5286,-6.5149,-6.5277,-6.5276,-6.5276,-6.5275,-6.5275,-6.4496,-6.4546,-6.461,-6.4682,-6.4729,-6.4783,-6.4835,-6.4875,-6.4938,-6.5017,-6.5034,-6.5113,-6.5172,-6.5269,-6.5307,-6.5369,-6.5359,-6.538,-6.5385,-6.539,-6.5393,-6.5267,-6.5382,-6.5382,-6.5381,-6.5381,-6.5381,0,-6.4592,-6.4635,-6.47,-6.4782,-6.4838,-6.4842,-6.4906,-6.4953,-6.5023,-6.508,-6.5139,-6.5226,-6.5296,-6.5347,-6.5418,-6.5458,-6.5463,-6.5476,-6.5473,-6.5482,-6.5397,-6.5378,-6.5471,-6.5471,-6.5471,-6.5471,-6.5471,-6.5471,-6.4648,-6.4735,-6.4761,-6.4872,-6.4914,-6.4993,-6.503,-6.508,-6.5126,-6.5223,-6.5282,-6.5316,-6.537,-6.5447,-6.5512,-6.5525,-6.5551,-6.5564,-6.5577,-6.5497,-6.5487,-6.5478,-6.546,-6.5569,-6.5569,-6.5656,-6.5657,-6.5657]}]]